• Join FlightAware (Why Join?)
  • Login
  • US Flag 
11:27AM EDT


 

Airport Tracker/Info


-or-


 

Live Flight TrackerFlight Track Log ✈ DAL268 ✈ 13-May-2013 ✈ KATL - KJFK

Flight Track Log - Related Links

Times and Time Zones

All times are in EDT time to prevent confusion due to time zone crossing. See the DAL268 flight status page for this flight to view local times or setup timezone preferences in your user account.

Time Position Orientation Groundspeed Altitude Reporting Facility
EDT Latitude Longitude Course Direction KTS MPH feet Rate Location/Type
06:19PM 33.6333 -84.4833 64° Northeast 196 226 2,900  Level Atlanta TRACON
06:20PM 33.6000 -84.5667 244° Southwest 257 296 4,700 2,220 Climbing Atlanta TRACON
06:21PM 33.7125 -84.0081 101° East  Level FlightAware Approximate
06:21PM 33.5333 -84.5833 192° South 283 326 7,400  Level Atlanta TRACON
06:22PM 33.6896 -83.8701 101° East  Level FlightAware Approximate
06:22PM 33.4500 -84.5500 162° South 326 375 9,200  Level Atlanta TRACON
06:23PM 33.6665 -83.7322 101° East  Level FlightAware Approximate
06:23PM 33.4556 -84.3775 88° East 340 391 11,300  Level Atlanta Center
06:24PM 33.6646 -83.5976 64° Northeast  Level FlightAware Approximate
06:24PM 33.4683 -84.2481 83° East 366 421 12,500  Level Atlanta Center
06:25PM 33.5208 -84.1286 62° Northeast 398 458 14,400 1,800 Climbing Atlanta Center
06:26PM 33.5731 -84.0014 64° Northeast 412 474 16,100 1,740 Climbing Atlanta Center
06:27PM 33.6167 -83.8667 69° East 426 490 17,900 1,560 Climbing Atlanta Center
06:28PM 33.6478 -83.7169 76° East 437 503 19,300 1,260 Climbing Atlanta Center
06:29PM 33.6847 -83.5794 72° East 464 534 20,500 1,500 Climbing Atlanta Center
06:30PM 33.7406 -83.4417 64° Northeast 464 534 22,300 1,500 Climbing Atlanta Center
06:31PM 33.7983 -83.3014 64° Northeast 464 534 23,500 1,200 Climbing Atlanta Center
06:32PM 33.8578 -83.1583 63° Northeast 470 541 24,800 1,500 Climbing Atlanta Center
06:33PM 33.9153 -83.0150 64° Northeast 470 541 26,500 1,500 Climbing Atlanta Center
06:34PM 33.9725 -82.8714 64° Northeast 465 535 27,900 1,320 Climbing Atlanta Center
06:35PM 34.0253 -82.7331 65° Northeast 465 535 29,200 1,200 Climbing Atlanta Center
06:36PM 34.0822 -82.5917 64° Northeast 459 528 30,300 1,140 Climbing Atlanta Center
06:37PM 34.1347 -82.4553 65° Northeast 453 521 31,500 960 Climbing Atlanta Center
06:38PM 34.1892 -82.3186 64° Northeast 448 516 32,300 600 Climbing Atlanta Center
06:39PM 34.2414 -82.1794 66° East 448 516 32,800 300 Climbing Atlanta Center
06:40PM 34.3061 -82.0472 59° Northeast 443 510 33,000 60 Climbing Atlanta Center
06:41PM 34.3728 -81.9147 59° Northeast 454 522 33,000  Level Atlanta Center
06:42PM 34.4392 -81.7794 59° Northeast 460 529 33,000  Level Atlanta Center
06:43PM 34.5097 -81.6442 58° Northeast 465 535 33,000  Level Atlanta Center
06:44PM 34.5758 -81.5058 60° Northeast 471 542 33,000  Level Atlanta Center
06:45PM 34.6419 -81.3725 59° Northeast 476 548 33,000  Level Atlanta Center
06:46PM 34.7097 -81.2339 59° Northeast 471 542 33,000  Level Atlanta Center
06:47PM 34.7775 -81.0928 60° Northeast 478 550 33,000  Level Atlanta Center
06:48PM 34.8408 -80.9589 60° Northeast 473 544 33,000  Level Atlanta Center
06:49PM 34.9103 -80.8169 59° Northeast 478 550 33,000  Level Atlanta Center
06:52PM 35.0781 -80.4650 60° Northeast 473 544 33,000  Level Washington Center
06:53PM 35.1531 -80.3119 59° Northeast 473 544 33,000  Level Washington Center
06:54PM 35.2233 -80.1686 59° Northeast 473 544 33,000  Level Washington Center
06:55PM 35.2936 -80.0225 59° Northeast 489 563 33,000  Level Washington Center
06:56PM 35.3453 -79.8622 68° East 489 563 33,000  Level Washington Center
06:57PM 35.3947 -79.7019 69° East 494 568 33,000  Level Washington Center
06:58PM 35.4439 -79.5464 69° East 499 574 33,000  Level Washington Center
06:59PM 35.4883 -79.4031 69° East 499 574 33,000  Level Washington Center
07:00PM 35.5328 -79.2444 71° East 499 574 33,000  Level Washington Center
07:01PM 35.5861 -79.0706 69° East 499 574 33,000  Level Washington Center
07:02PM 35.6344 -78.9092 70° East 494 568 33,000  Level Washington Center
07:03PM 35.6758 -78.7625 71° East 499 574 33,000  Level Washington Center
07:04PM 35.7261 -78.5983 69° East 504 580 33,000  Level Washington Center
07:05PM 35.7739 -78.4311 71° East 504 580 33,000  Level Washington Center
07:06PM 35.8194 -78.2689 71° East 504 580 33,000  Level Washington Center
07:07PM 35.8669 -78.1014 71° East 504 580 33,000  Level Washington Center
07:08PM 35.9142 -77.9336 71° East 504 580 33,000  Level Washington Center
07:09PM 35.9633 -77.7631 70° East 504 580 33,000  Level Washington Center
07:10PM 36.0347 -77.6133 59° Northeast 504 580 33,000  Level Washington Center
07:11PM 36.1225 -77.4769 51° Northeast 498 573 33,000  Level Washington Center
07:12PM 36.2103 -77.3244 54° Northeast 498 573 33,000  Level Washington Center
07:13PM 36.2978 -77.1872 52° Northeast 498 573 33,000  Level Washington Center
07:14PM 36.3831 -77.0472 53° Northeast 505 581 33,000  Level Washington Center
07:15PM 36.4681 -76.9067 53° Northeast 499 574 33,000  Level Washington Center
07:16PM 36.5531 -76.7683 53° Northeast 499 574 33,000  Level Washington Center
07:17PM 36.6378 -76.6300 53° Northeast 499 574 33,000  Level Washington Center
07:18PM 36.7222 -76.4833 54° Northeast 499 574 33,000  Level Washington Center
07:19PM 36.8067 -76.3469 52° Northeast 499 574 33,000  Level Washington Center
07:20PM 36.8847 -76.2203 52° Northeast 499 574 33,000  Level Washington Center
07:21PM 37.0081 -76.1381 28° Northeast 483 556 33,000  Level Washington Center
07:22PM 37.1336 -76.0739 22° Northeast 475 547 33,000  Level Washington Center
07:23PM 37.2589 -76.0067 23° Northeast 480 552 33,000  Level Washington Center
07:24PM 37.3864 -75.9394 23° Northeast 486 559 33,000  Level Washington Center
07:25PM 37.5158 -75.8694 23° Northeast 492 566 33,000  Level Washington Center
07:26PM 37.6369 -75.7858 29° Northeast 492 566 33,000  Level Washington Center
07:27PM 37.7561 -75.6942 31° Northeast 492 566 33,000  Level Washington Center
07:28PM 37.8769 -75.6050 30° Northeast 502 578 33,000  Level Washington Center
07:29PM 37.9978 -75.5128 31° Northeast 502 578 33,000 -60 Level Washington Center
07:30PM 38.1231 -75.4308 27° Northeast 502 578 32,900  Descending Washington Center
07:31PM 38.2481 -75.3511 27° Northeast 496 571 33,000  Climbing Washington Center
07:32PM 38.3728 -75.2658 28° Northeast 496 571 33,000  Level Washington Center
07:33PM 38.4978 -75.1886 26° Northeast 496 571 33,000  Level Washington Center
07:34PM 38.6225 -75.1056 27° Northeast 491 565 33,000 -60 Level Washington Center
07:35PM 38.7492 -75.0272 26° Northeast 491 565 32,900  Descending Washington Center
07:36PM 38.8719 -74.9464 27° Northeast 491 565 33,000 -480 Climbing Washington Center
07:37PM 38.9964 -74.8678 26° Northeast 491 565 32,000 -2,160 Descending Washington Center
07:38PM 39.1208 -74.7756 30° Northeast 491 565 28,700 -2,760 Descending Washington Center
07:39PM 39.2306 -74.6592 39° Northeast 497 572 26,500 -2,400 Descending Washington Center
07:40PM 39.3317 -74.5450 41° Northeast 497 572 24,000 -2,400 Descending Washington Center
07:42PM 39.5842 -74.2753 39° Northeast 455 524 18,300 -1,800 Descending New York Center
07:43PM 39.6575 -74.1953 40° Northeast 404 465 17,900 -720 Descending New York Center
07:44PM 39.7328 -74.1100 41° Northeast 364 419 16,900 -1,320 Descending New York Center
07:45PM 39.8081 -74.0269 40° Northeast 334 384 15,300 -1,740 Descending New York Center
07:46PM 39.8808 -73.9600 35° Northeast 316 364 13,500 -1,620 Descending New York Center
07:47PM 39.9508 -73.9119 28° Northeast 311 358 12,100 -1,200 Descending New York Center
07:48PM 40.0189 -73.8633 29° Northeast 291 335 11,100 -600 Descending New York Center
07:49PM 40.0914 -73.8069 31° Northeast 274 315 11,000 -120 Descending New York Center
07:50PM 40.1489 -73.7553 34° Northeast 274 315 10,900 -480 Descending New York Center
07:51PM 40.1833 -73.7333 26° Northeast 280 322 10,400 -1,440 Descending New York TRACON
07:52PM 40.2333 -73.6833 37° Northeast 268 308 9,100 -1,500 Descending New York TRACON
07:53PM 40.3000 -73.6333 30° Northeast 253 291 7,400 -1,260 Descending New York TRACON
07:53PM 40.3483 -73.6169 14° North 252 290 7,000 -240 Descending New York Center
07:54PM 40.4094 -73.5867 21° North 252 290 7,000  Level New York Center
07:55PM 40.4333 -73.5667 33° Northeast 258 297 7,000  Level New York TRACON
07:56PM 40.5000 -73.5333 21° North 262 302 7,000 -660 Level New York TRACON
07:57PM 40.5667 -73.5000 21° North 256 295 5,700 -960 Descending New York TRACON
07:58PM 40.6333 -73.4500 30° Northeast 233 268 5,000 -360 Descending New York TRACON
07:59PM 40.6667 -73.3833 57° Northeast 222 255 5,000  Level New York TRACON
08:00PM 40.7000 -73.3333 49° Northeast 220 253 5,000 -120 Level New York TRACON
08:01PM 40.7667 -73.3333 360° North 203 234 4,800 -600 Descending New York TRACON
08:02PM 40.8167 -73.3333 360° North 196 226 3,800 -900 Descending New York TRACON
08:03PM 40.8167 -73.3833 270° West 170 196 3,000 -420 Descending New York TRACON
08:04PM 40.8333 -73.4667 285° West 171 197 3,000 -300 Level New York TRACON
08:05PM 40.8333 -73.5167 270° West 171 197 2,400 -540 Descending New York TRACON
08:06PM 40.8167 -73.5833 252° West 184 212 2,000 -240 Descending New York TRACON
08:07PM 40.7833 -73.6333 229° Southwest 185 213 2,000  Level New York TRACON